Location: Risskov
(56.1972°N, 10.2480°E)
Time: 23:26:12
(UTC+00:00)

SeaSat 1 - Pass Details

Date: 05 July 2020
Orbit: 744 x 748 km, 108.0° (Epoch: 14 August)

Event Time Altitude Azimuth Distance (km) Brightness Sun altitude
Rises 23:41:13 0° 42° (NE) 3,202 6.6 -11.1°
Reaches altitude 10° 23:44:14 10° 61° (ENE) 2,274 5.4 -11.0°
Maximum altitude 23:47:33 18° 104° (ESE) 1,793 4.3 -11.0°
Drops below altitude 10° 23:50:50 10° 146° (SE) 2,264 4.5 -10.9°
Enters shadow 23:51:20 - 150° (SSE) 2,396 4.6 -10.9°
